QPF
0.00 0.00 0.00 0.00 0.04 0.02 0.00 0.00 0.00 0.00 0.00 0.00 0.00 0.00 0.00 0.01 0.02 0.05 0.01 0.00 0.00 0.00 0.00 0.01 0.06 0.07 0.06 0.06 0.04 0.03 0.03 0.02 0.01 0.01 0.01 0.03 0.03 0.03 0.02 0.03 0.03 0.04 0.07 0.09 0.11 0.14 0.16 0.06 0.03
0.00 0.00 0.00 0.00 0.06 0.00 0.00 0.00 0.00 0.00 0.00 0.00 0.00 0.00 0.00 0.00 0.00 0.00 0.00 0.00 0.00 0.02 0.01 0.00 0.07 0.04 0.05 0.05 0.02 0.03 0.03 0.03 0.02 0.02 0.02 0.04 0.03 0.05 0.10 0.07 0.04 0.03 0.04 0.06 0.09 0.13 0.17 0.19 0.26
0.00 0.00 0.01 0.01 0.01 0.01 0.00 0.00 0.00 0.00 0.00 0.00 0.00 0.00 0.00 0.00 0.00 0.00 0.00 0.00 0.01 0.01 0.00 0.00 0.02 0.03 0.03 0.03 0.03 0.04 0.02 0.03 0.01 0.01 0.02 0.03 0.06 0.09 0.10 0.13 0.03 0.00 0.00 0.01 0.01 0.03 0.05 0.15 0.30
0.00 0.00 0.00 0.03 0.03 0.00 0.00 0.00 0.00 0.00 0.00 0.00 0.00 0.00 0.00 0.00 0.00 0.00 0.00 0.00 0.00 0.01 0.00 0.00 0.03 0.03 0.02 0.04 0.03 0.02 0.02 0.02 0.01 0.01 0.01 0.03 0.07 0.07 0.03 0.01 0.00 0.00 0.00 0.02 0.02 0.02 0.07 0.23 0.17
0.00 0.03 0.01 0.06 0.06 0.00 0.00 0.00 0.00 0.00 0.00 0.00 0.00 0.00 0.00 0.00 0.00 0.00 0.00 0.00 0.03 0.02 0.00 0.00 0.03 0.02 0.02 0.03 0.02 0.01 0.00 0.00 0.01 0.01 0.02 0.03 0.02 0.01 0.00 0.00 0.00 0.00 0.00 0.02 0.01 0.00 0.01 0.01 0.00
0.07 0.04 0.03 0.06 0.10 0.01 0.00 0.00 0.00 0.01 0.00 0.00 0.00 0.00 0.00 0.00 0.00 0.00 0.00 0.00 0.01 0.02 0.00 0.00 0.00 0.01 0.02 0.02 0.01 0.00 0.00 0.01 0.00 0.00 0.00 0.00 0.00 0.00 0.00 0.00 0.01 0.01 0.00 0.00 0.00 0.00 0.00 0.00 0.00
0.03 0.13 0.08 0.04 0.11 0.04 0.03 0.00 0.01 0.01 0.00 0.00 0.00 0.00 0.00 0.00 0.00 0.00 0.00 0.00 0.00 0.02 0.01 0.00 0.00 0.04 0.00 0.00 0.00 0.01 0.01 0.00 0.00 0.00 0.01 0.00 0.00 0.00 0.00 0.00 0.02 0.02 0.00 0.00 0.00 0.01 0.00 0.00 0.00
0.00 0.04 0.04 0.02 0.12 0.09 0.00 0.00 0.00 0.00 0.00 0.00 0.00 0.00 0.00 0.00 0.00 0.00 0.00 0.00 0.00 0.00 0.00 0.01 0.06 0.06 0.00 0.00 0.04 0.04 0.01 0.00 0.00 0.00 0.00 0.00 0.00 0.00 0.00 0.01 0.00 0.01 0.00 0.00 0.00 0.00 0.00 0.00 0.00
0.00 0.10 0.10 0.00 0.08 0.08 0.00 0.00 0.00 0.00 0.00 0.00 0.00 0.00 0.00 0.00 0.00 0.00 0.00 0.00 0.00 0.00 0.00 0.00 0.01 0.02 0.00 0.00 0.04 0.01 0.00 0.00 0.00 0.00 0.00 0.00 0.00 0.00 0.00 0.01 0.00 0.00 0.00 0.00 0.00 0.00 0.00 0.00 0.00
0.04 0.20 0.13 0.00 0.00 0.00 0.00 0.01 0.00 0.00 0.00 0.00 0.00 0.00 0.00 0.00 0.00 0.00 0.00 0.00 0.00 0.00 0.00 0.00 0.01 0.00 0.00 0.00 0.00 0.00 0.00 0.00 0.00 0.00 0.00 0.00 0.00 0.00 0.00 0.00 0.00 0.00 0.00 0.00 0.00 0.00 0.00 0.00 0.00
0.00 0.05 0.00 0.00 0.00 0.00 0.00 0.00 0.00 0.00 0.00 0.00 0.00 0.00 0.00 0.00 0.00 0.00 0.00 0.00 0.00 0.00 0.00 0.00 0.00 0.00 0.01 0.00 0.00 0.00 0.00 0.00 0.00 0.01 0.00 0.00 0.00 0.00 0.00 0.00 0.00 0.00 0.01 0.00 0.00 0.00 0.00 0.00 0.00
0.00 0.00 0.00 0.00 0.00 0.00 0.00 0.00 0.00 0.00 0.00 0.00 0.00 0.00 0.00 0.00 0.00 0.00 0.00 0.00 0.00 0.00 0.00 0.00 0.00 0.01 0.03 0.00 0.00 0.00 0.00 0.00 0.00 0.00 0.00 0.00 0.00 0.00 0.00 0.00 0.00 0.00 0.00 0.00 0.00 0.00 0.00 0.00 0.00
0.00 0.00 0.00 0.00 0.00 0.00 0.00 0.02 0.00 0.00 0.00 0.00 0.00 0.00 0.00 0.00 0.00 0.00 0.00 0.00 0.00 0.00 0.00 0.00 0.00 0.05 0.06 0.00 0.00 0.00 0.00 0.00 0.00 0.00 0.00 0.00 0.00 0.00 0.00 0.00 0.00 0.00 0.00 0.00 0.00 0.00 0.00 0.00 0.00
0.01 0.00 0.00 0.00 0.00 0.00 0.01 0.03 0.02 0.02 0.00 0.00 0.00 0.00 0.00 0.00 0.00 0.00 0.00 0.00 0.00 0.00 0.00 0.00 0.00 0.00 0.02 0.00 0.00 0.00 0.00 0.00 0.00 0.00 0.00 0.00 0.00 0.00 0.00 0.01 0.00 0.00 0.00 0.00 0.00 0.00 0.00 0.00 0.00
0.00 0.00 0.01 0.05 0.08 0.03 0.00 0.00 0.06 0.04 0.00 0.00 0.00 0.00 0.00 0.00 0.00 0.00 0.00 0.00 0.00 0.00 0.00 0.00 0.00 0.00 0.00 0.00 0.00 0.00 0.00 0.00 0.00 0.00 0.00 0.00 0.00 0.00 0.00 0.01 0.00 0.00 0.00 0.00 0.00 0.00 0.00 0.00 0.00
0.00 0.00 0.09 0.07 0.17 0.13 0.01 0.00 0.04 0.06 0.00 0.00 0.00 0.00 0.00 0.00 0.00 0.00 0.00 0.00 0.00 0.00 0.00 0.00 0.00 0.00 0.00 0.00 0.00 0.00 0.00 0.00 0.00 0.00 0.00 0.00 0.00 0.00 0.00 0.00 0.00 0.00 0.00 0.00 0.00 0.00 0.00 0.00 0.00
0.00 0.00 0.05 0.03 0.16 0.07 0.02 0.01 0.01 0.06 0.01 0.00 0.00 0.00 0.00 0.00 0.00 0.00 0.00 0.00 0.00 0.00 0.00 0.00 0.00 0.00 0.00 0.00 0.02 0.00 0.00 0.00 0.00 0.00 0.00 0.00 0.00 0.00 0.00 0.00 0.00 0.00 0.00 0.00 0.00 0.00 0.00 0.00 0.00
0.00 0.00 0.02 0.09 0.03 0.01 0.00 0.03 0.03 0.03 0.04 0.02 0.00 0.00 0.00 0.00 0.01 0.00 0.00 0.00 0.00 0.00 0.00 0.00 0.00 0.00 0.00 0.00 0.03 0.00 0.00 0.00 0.00 0.00 0.00 0.00 0.00 0.00 0.00 0.00 0.00 0.02 0.00 0.00 0.00 0.00 0.00 0.00 0.00
0.00 0.00 0.00 0.02 0.00 0.00 0.00 0.00 0.02 0.06 0.04 0.01 0.00 0.01 0.01 0.00 0.00 0.00 0.00 0.00 0.00 0.00 0.00 0.00 0.03 0.01 0.00 0.00 0.00 0.00 0.00 0.00 0.00 0.00 0.00 0.00 0.00 0.00 0.00 0.00 0.01 0.02 0.00 0.00 0.00 0.00 0.00 0.00 0.00
0.00 0.00 0.00 0.00 0.00 0.01 0.00 0.03 0.02 0.03 0.01 0.00 0.00 0.02 0.02 0.00 0.01 0.00 0.00 0.00 0.00 0.00 0.00 0.00 0.04 0.05 0.00 0.00 0.00 0.00 0.00 0.00 0.00 0.00 0.00 0.00 0.00 0.00 0.00 0.00 0.00 0.06 0.00 0.00 0.00 0.00 0.00 0.00 0.00
0.00 0.00 0.00 0.00 0.00 0.00 0.00 0.07 0.02 0.05 0.03 0.00 0.00 0.01 0.02 0.01 0.00 0.00 0.00 0.00 0.00 0.00 0.00 0.00 0.00 0.01 0.02 0.00 0.00 0.04 0.06 0.00 0.00 0.00 0.00 0.00 0.00 0.00 0.00 0.00 0.00 0.00 0.03 0.00 0.00 0.00 0.00 0.00 0.00
0.00 0.00 0.00 0.00 0.00 0.02 0.00 0.03 0.01 0.01 0.00 0.00 0.01 0.00 0.01 0.01 0.00 0.00 0.00 0.00 0.00 0.00 0.00 0.00 0.01 0.00 0.01 0.04 0.02 0.03 0.01 0.00 0.00 0.00 0.00 0.00 0.00 0.00 0.00 0.00 0.00 0.00 0.00 0.00 0.00 0.00 0.00 0.00 0.00
0.00 0.00 0.00 0.00 0.00 0.00 0.00 0.00 0.00 0.01 0.02 0.00 0.03 0.00 0.01 0.00 0.00 0.00 0.00 0.00 0.00 0.00 0.00 0.00 0.05 0.02 0.00 0.01 0.09 0.00 0.00 0.00 0.00 0.00 0.00 0.00 0.00 0.00 0.00 0.00 0.00 0.00 0.00 0.00 0.00 0.00 0.00 0.00 0.00
0.00 0.00 0.00 0.00 0.00 0.00 0.00 0.00 0.00 0.05 0.04 0.01 0.03 0.00 0.00 0.00 0.00 0.00 0.00 0.00 0.00 0.00 0.01 0.00 0.01 0.00 0.00 0.01 0.02 0.00 0.00 0.00 0.00 0.00 0.00 0.00 0.00 0.00 0.00 0.00 0.00 0.00 0.00 0.00 0.00 0.00 0.00 0.00 0.00
0.00 0.00 0.00 0.00 0.00 0.00 0.00 0.00 0.00 0.00 0.00 0.00 0.00 0.00 0.00 0.00 0.00 0.00 0.00 0.00 0.00 0.00 0.00 0.00 0.00 0.03 0.01 0.01 0.00 0.00 0.00 0.00 0.00 0.02 0.00 0.00 0.00 0.00 0.00 0.00 0.00 0.00 0.00 0.00 0.00 0.00 0.00 0.00 0.02
0.00 0.00 0.00 0.01 0.00 0.00 0.00 0.00 0.00 0.00 0.00 0.00 0.01 0.00 0.00 0.00 0.00 0.00 0.00 0.00 0.00 0.00 0.00 0.00 0.00 0.00 0.02 0.01 0.00 0.01 0.00 0.00 0.00 0.00 0.00 0.00 0.00 0.00 0.00 0.00 0.00 0.00 0.00 0.00 0.00 0.00 0.00 0.00 0.00
0.00 0.00 0.00 0.00 0.00 0.00 0.00 0.00 0.00 0.00 0.00 0.00 0.01 0.00 0.00 0.00 0.00 0.00 0.00 0.00 0.00 0.00 0.00 0.00 0.00 0.00 0.00 0.00 0.00 0.00 0.00 0.00 0.00 0.00 0.01 0.00 0.00 0.00 0.00 0.00 0.00 0.00 0.00 0.00 0.00 0.00 0.00 0.00 0.00
0.00 0.00 0.00 0.00 0.00 0.01 0.01 0.00 0.00 0.00 0.00 0.00 0.00 0.00 0.00 0.00 0.00 0.00 0.00 0.00 0.00 0.00 0.00 0.00 0.00 0.00 0.00 0.00 0.00 0.00 0.00 0.00 0.01 0.03 0.01 0.00 0.00 0.00 0.00 0.00 0.00 0.00 0.00 0.00 0.00 0.00 0.00 0.00 0.00
0.00 0.00 0.00 0.00 0.00 0.04 0.04 0.00 0.00 0.00 0.00 0.00 0.00 0.00 0.01 0.00 0.00 0.00 0.00 0.00 0.00 0.00 0.00 0.00 0.00 0.00 0.00 0.00 0.00 0.00 0.00 0.00 0.00 0.00 0.00 0.00 0.00 0.00 0.00 0.01 0.00 0.00 0.00 0.01 0.04 0.01 0.00 0.00 0.00
0.00 0.00 0.00 0.00 0.00 0.00 0.00 0.00 0.00 0.00 0.00 0.00 0.00 0.00 0.00 0.02 0.01 0.00 0.00 0.00 0.00 0.00 0.00 0.00 0.00 0.00 0.00 0.00 0.00 0.00 0.00 0.00 0.00 0.00 0.00 0.00 0.00 0.02 0.01 0.07 0.00 0.00 0.00 0.00 0.01 0.00 0.00 0.00 0.00
MSLP
1009.91 1009.07 1008.02 1007.80 1006.71 1005.52 1003.94 1003.47 1003.38 1003.61 1003.86 1004.41 1004.85 1004.82 1006.15 1007.16 1007.36 1009.03 1010.34 1011.16 1012.11 1012.98 1014.45 1015.17 1015.60 1015.86 1015.99 1016.13 1016.01 1016.08 1016.11 1016.09 1016.11 1016.15 1016.26 1016.32 1016.32 1016.29 1016.45 1016.62 1016.66 1016.85 1016.95 1017.03 1017.12 1017.11 1017.21 1017.15 1017.27
1008.61 1008.21 1008.42 1007.77 1006.11 1004.32 1004.07 1003.57 1003.71 1003.76 1004.48 1005.17 1005.54 1005.41 1006.60 1007.72 1008.49 1009.40 1010.69 1011.47 1012.15 1012.75 1013.52 1014.89 1015.96 1016.10 1016.22 1016.28 1016.40 1016.43 1016.41 1016.46 1016.46 1016.53 1016.55 1016.46 1016.57 1016.68 1016.78 1016.87 1016.98 1017.05 1017.19 1017.30 1017.46 1017.51 1017.56 1017.75 1017.63
1008.71 1009.30 1008.84 1007.85 1005.51 1004.87 1003.74 1003.66 1003.86 1004.64 1004.88 1005.42 1006.15 1006.81 1007.32 1008.47 1009.08 1009.71 1011.03 1011.56 1012.25 1012.88 1014.06 1015.77 1016.20 1016.42 1016.45 1016.54 1016.75 1016.72 1016.79 1016.84 1016.82 1016.76 1016.78 1016.68 1016.97 1017.16 1017.14 1017.22 1017.19 1017.24 1017.38 1017.49 1017.69 1017.87 1017.93 1018.23 1018.08
1008.27 1009.31 1009.48 1008.64 1006.71 1004.61 1003.77 1003.95 1004.41 1004.83 1005.67 1006.04 1006.71 1007.83 1008.54 1009.33 1009.65 1010.74 1011.23 1011.79 1012.36 1013.17 1014.55 1016.13 1016.44 1016.65 1016.80 1017.04 1016.93 1017.07 1017.12 1017.13 1017.08 1017.10 1017.19 1017.16 1017.39 1017.33 1017.26 1017.47 1017.58 1017.60 1017.68 1017.66 1017.99 1018.14 1018.26 1018.18 1018.14
1007.39 1007.92 1008.95 1008.40 1006.26 1005.37 1004.47 1004.39 1004.80 1005.51 1005.84 1006.25 1007.02 1008.36 1009.31 1009.86 1010.51 1011.06 1011.31 1011.92 1013.47 1013.36 1014.68 1015.87 1016.66 1016.79 1017.05 1017.20 1017.31 1017.32 1017.31 1017.31 1017.35 1017.44 1017.56 1017.46 1017.51 1017.53 1017.61 1017.76 1017.90 1017.85 1017.89 1017.85 1018.23 1018.20 1018.31 1018.33 1018.41
1007.78 1006.97 1007.73 1008.24 1007.40 1006.45 1005.49 1005.08 1005.52 1006.08 1006.24 1006.98 1007.74 1008.52 1009.73 1010.53 1010.84 1011.10 1011.21 1012.27 1013.23 1013.41 1014.32 1015.67 1016.68 1016.94 1017.08 1017.31 1017.43 1017.45 1017.60 1017.56 1017.64 1017.74 1017.78 1017.81 1017.90 1017.92 1017.96 1018.08 1018.04 1018.07 1018.26 1018.41 1018.36 1018.40 1018.59 1018.64 1018.65
1006.88 1006.87 1007.92 1008.36 1008.00 1007.33 1006.42 1005.85 1005.77 1006.31 1006.21 1007.10 1007.79 1008.75 1010.08 1010.43 1010.98 1011.10 1011.27 1011.82 1012.93 1014.30 1014.29 1015.13 1016.05 1016.90 1017.26 1017.48 1017.55 1017.65 1017.78 1017.89 1017.97 1017.98 1018.03 1018.13 1018.20 1018.19 1018.21 1018.26 1018.18 1018.23 1018.42 1018.51 1018.60 1018.68 1018.76 1018.84 1018.79
1006.14 1005.82 1007.15 1008.68 1008.20 1008.30 1007.31 1006.61 1006.63 1006.26 1006.90 1006.95 1007.83 1008.88 1009.68 1010.41 1011.08 1011.18 1011.59 1012.15 1012.75 1014.09 1015.15 1015.18 1015.80 1016.29 1016.63 1017.28 1017.86 1017.89 1018.05 1018.16 1018.22 1018.14 1018.11 1018.09 1018.19 1018.31 1018.39 1018.32 1018.45 1018.50 1018.66 1018.65 1018.73 1018.78 1018.85 1018.88 1018.98
1006.52 1007.37 1007.38 1008.81 1009.03 1008.55 1007.96 1007.19 1007.52 1007.50 1007.53 1007.36 1007.81 1008.62 1009.63 1010.78 1011.04 1011.28 1011.75 1012.42 1013.01 1013.53 1014.15 1015.24 1016.06 1016.36 1016.56 1017.33 1017.94 1018.10 1018.20 1018.30 1018.24 1018.11 1018.14 1018.00 1017.41 1017.83 1018.32 1018.57 1018.77 1018.74 1018.67 1018.78 1018.82 1018.79 1018.72 1018.82 1018.81
1005.23 1006.44 1006.94 1007.94 1009.68 1008.81 1008.49 1007.75 1007.78 1007.60 1007.70 1007.79 1008.08 1008.84 1010.28 1011.00 1011.08 1011.27 1011.63 1012.47 1012.94 1013.56 1013.69 1014.43 1015.13 1015.43 1015.71 1016.31 1017.35 1017.30 1017.67 1017.40 1017.68 1017.48 1017.41 1017.40 1017.97 1017.91 1018.00 1018.56 1018.69 1018.59 1018.62 1018.65 1018.50 1018.43 1018.57 1018.57 1017.61
1004.66 1005.65 1006.75 1008.19 1009.77 1009.64 1009.07 1008.02 1007.73 1007.24 1007.41 1007.63 1008.21 1009.53 1010.68 1010.93 1011.07 1011.41 1011.77 1012.41 1013.35 1013.98 1014.02 1014.19 1015.17 1016.05 1016.32 1016.80 1017.04 1016.52 1017.08 1017.55 1018.01 1017.83 1017.30 1017.47 1017.48 1017.53 1017.41 1017.71 1017.90 1017.49 1018.27 1018.11 1018.03 1017.87 1017.68 1016.97 1016.69
1004.72 1005.73 1006.47 1008.40 1009.83 1010.26 1009.84 1008.76 1007.88 1007.33 1007.78 1007.87 1008.56 1009.91 1010.66 1010.75 1010.92 1011.16 1011.64 1012.49 1013.69 1014.50 1014.55 1014.86 1015.57 1016.62 1016.45 1017.18 1016.85 1016.50 1016.75 1016.96 1017.03 1017.84 1017.59 1017.49 1017.39 1017.09 1017.46 1016.57 1016.41 1016.54 1016.87 1017.02 1016.99 1016.99 1017.25 1017.14 1016.99
1004.26 1005.73 1007.03 1008.29 1009.54 1010.12 1010.63 1010.17 1008.90 1008.60 1008.54 1008.14 1008.84 1009.99 1010.50 1010.48 1010.80 1011.13 1011.73 1012.62 1014.05 1014.68 1015.11 1015.50 1016.04 1017.15 1016.88 1016.63 1016.26 1016.59 1016.83 1016.44 1017.01 1017.13 1017.32 1018.30 1017.14 1017.38 1017.20 1016.79 1016.33 1016.16 1016.74 1016.62 1017.05 1017.38 1017.20 1017.21 1017.35
1004.64 1005.50 1007.02 1008.47 1009.81 1011.21 1011.33 1011.48 1010.41 1009.34 1008.97 1009.10 1009.63 1009.91 1010.23 1010.41 1010.93 1011.42 1011.94 1012.86 1014.01 1014.43 1015.26 1015.77 1016.24 1017.12 1017.01 1016.95 1016.96 1016.85 1016.54 1016.81 1017.01 1017.24 1017.92 1017.59 1017.22 1017.74 1016.07 1016.93 1016.02 1016.13 1016.42 1016.59 1017.14 1017.24 1017.12 1017.21 1017.48
1004.93 1005.35 1006.75 1009.30 1010.66 1011.98 1012.52 1012.84 1011.74 1010.58 1009.64 1009.84 1009.90 1010.08 1010.49 1010.77 1011.17 1011.44 1011.99 1012.99 1013.81 1014.34 1015.23 1015.94 1016.07 1016.55 1017.13 1017.51 1017.54 1016.94 1016.91 1017.29 1017.28 1017.65 1018.26 1018.30 1017.82 1017.50 1016.12 1016.16 1015.98 1016.77 1017.50 1017.79 1017.86 1017.52 1017.28 1017.09 1017.29
1004.17 1004.92 1006.76 1009.54 1011.09 1012.68 1013.16 1013.61 1013.08 1012.44 1010.29 1010.26 1010.45 1010.65 1011.05 1011.17 1011.59 1011.85 1012.31 1012.96 1013.75 1013.93 1015.12 1015.79 1015.65 1016.44 1017.10 1017.51 1017.29 1017.08 1017.12 1017.25 1017.54 1017.43 1017.92 1018.39 1018.62 1018.00 1016.96 1016.64 1017.20 1017.07 1016.92 1017.13 1017.34 1017.14 1016.96 1017.00 1017.15
1003.58 1004.59 1007.40 1009.23 1010.96 1012.75 1013.92 1014.12 1014.09 1013.04 1011.54 1010.88 1010.82 1010.73 1011.05 1011.18 1011.73 1011.96 1012.36 1012.86 1013.72 1014.10 1015.19 1015.67 1015.90 1016.41 1017.21 1017.47 1017.26 1017.49 1017.37 1017.61 1017.66 1017.60 1017.81 1018.61 1018.68 1018.33 1017.55 1017.69 1017.19 1017.15 1016.62 1017.10 1017.26 1017.21 1017.31 1017.39 1017.09
1005.55 1004.55 1006.33 1008.44 1010.99 1012.44 1013.24 1014.12 1014.63 1014.34 1013.22 1012.47 1011.13 1010.84 1010.96 1011.23 1011.64 1011.75 1012.28 1012.95 1013.54 1014.44 1015.30 1015.74 1016.10 1016.71 1017.37 1017.63 1018.06 1017.81 1017.72 1017.63 1017.71 1018.08 1017.99 1018.76 1018.60 1018.54 1017.86 1016.86 1016.44 1017.00 1016.31 1017.14 1017.40 1017.71 1017.61 1017.27 1016.86
1005.25 1006.40 1007.76 1008.42 1009.66 1010.84 1012.14 1013.16 1014.18 1014.77 1014.42 1013.23 1012.91 1011.82 1011.09 1010.80 1011.35 1011.39 1011.85 1012.77 1013.38 1014.70 1015.56 1016.14 1016.38 1017.06 1017.33 1017.48 1017.51 1017.62 1017.57 1017.74 1017.92 1018.40 1018.49 1018.92 1018.73 1018.75 1017.99 1016.25 1017.15 1016.89 1016.02 1017.34 1018.31 1018.36 1018.18 1017.34 1017.54
1003.48 1004.70 1006.01 1007.15 1008.44 1008.83 1010.91 1012.04 1013.89 1014.38 1014.47 1014.07 1012.87 1013.21 1011.80 1010.93 1011.02 1011.42 1012.00 1012.40 1013.18 1014.66 1015.50 1016.27 1016.97 1017.43 1017.48 1017.26 1017.32 1017.44 1017.74 1017.68 1017.93 1018.01 1018.62 1018.54 1018.85 1018.75 1018.37 1016.99 1017.12 1018.31 1016.55 1017.92 1018.39 1018.37 1017.55 1017.36 1017.67
1003.19 1003.40 1005.24 1005.76 1006.96 1007.25 1008.68 1010.67 1012.70 1014.11 1014.40 1013.98 1013.28 1013.01 1012.88 1011.65 1012.06 1011.33 1011.46 1011.95 1013.02 1014.05 1015.18 1015.85 1016.68 1017.46 1017.62 1017.22 1017.49 1017.78 1018.24 1017.93 1017.92 1018.25 1018.54 1018.72 1018.78 1018.71 1018.50 1017.80 1016.77 1017.08 1015.49 1017.24 1018.25 1018.32 1018.02 1017.33 1017.93
1002.62 1003.17 1004.34 1004.93 1005.18 1006.95 1006.92 1007.45 1010.36 1011.95 1013.35 1013.81 1012.98 1013.07 1012.59 1011.70 1010.91 1010.42 1011.03 1011.58 1012.80 1013.81 1014.53 1015.27 1016.27 1017.12 1017.73 1017.60 1017.59 1017.87 1018.05 1017.59 1017.66 1017.80 1017.97 1018.53 1018.86 1018.70 1018.76 1018.70 1018.24 1017.04 1015.08 1017.04 1018.19 1018.45 1018.43 1017.94 1017.42
1003.16 1004.11 1004.44 1004.40 1004.55 1004.93 1005.23 1005.67 1007.51 1009.74 1011.83 1012.13 1011.88 1012.62 1011.46 1010.49 1009.96 1009.73 1009.93 1011.03 1011.55 1013.26 1014.30 1014.66 1015.90 1016.76 1017.21 1017.64 1017.94 1017.85 1017.83 1017.49 1017.53 1017.83 1018.30 1018.47 1019.05 1018.95 1018.82 1019.01 1019.01 1018.76 1018.49 1018.36 1018.75 1018.93 1018.96 1018.21 1017.93
1003.67 1003.98 1004.08 1004.31 1004.18 1003.98 1003.75 1004.65 1005.98 1007.59 1008.23 1009.68 1010.52 1010.76 1010.27 1010.44 1008.96 1008.90 1009.72 1010.27 1011.07 1012.14 1013.59 1013.96 1015.37 1016.69 1016.98 1017.59 1017.92 1017.76 1017.60 1017.96 1017.27 1017.78 1018.19 1018.35 1018.50 1018.87 1018.97 1018.98 1019.22 1019.22 1018.95 1019.06 1019.11 1019.36 1019.37 1019.27 1018.97
1003.74 1003.21 1002.83 1002.95 1002.92 1002.89 1004.18 1003.61 1004.82 1004.61 1005.57 1007.30 1008.35 1009.01 1009.07 1008.70 1008.49 1009.43 1008.99 1010.14 1010.66 1011.61 1012.86 1013.84 1014.90 1016.15 1016.79 1017.16 1017.67 1017.80 1017.95 1017.70 1017.63 1017.86 1017.80 1017.46 1017.60 1017.71 1018.68 1018.99 1019.29 1019.19 1019.48 1019.40 1019.46 1019.60 1019.55 1019.43 1019.37
1003.19 1002.39 1001.92 1004.02 1002.98 1004.73 1003.96 1002.57 1003.99 1003.54 1003.74 1005.51 1007.05 1008.01 1008.19 1007.62 1007.54 1008.01 1008.16 1009.83 1009.87 1011.09 1012.09 1013.01 1014.31 1015.51 1016.53 1016.88 1017.39 1017.72 1018.04 1017.92 1017.79 1018.16 1017.68 1017.46 1017.26 1017.41 1018.09 1018.83 1018.97 1019.23 1019.17 1019.43 1019.50 1019.55 1019.48 1019.14 1019.42
1002.56 1002.75 1001.89 1002.49 1003.14 1004.33 1003.67 1002.95 1002.58 1003.19 1003.88 1005.75 1006.32 1006.46 1007.03 1007.38 1007.11 1007.45 1007.56 1009.33 1009.60 1010.54 1011.66 1012.80 1013.87 1014.98 1015.72 1016.21 1017.01 1017.48 1017.91 1017.98 1017.45 1017.66 1018.07 1017.74 1017.44 1017.44 1017.77 1018.48 1018.85 1019.06 1019.20 1019.29 1019.34 1019.46 1019.30 1019.40 1019.50
1003.10 1004.22 1002.92 1002.48 1004.13 1004.96 1004.51 1002.62 1003.21 1003.05 1003.82 1004.70 1005.17 1005.71 1005.95 1006.77 1007.39 1006.78 1007.04 1007.87 1009.13 1010.16 1011.08 1012.44 1013.41 1014.46 1015.15 1015.63 1016.32 1016.83 1017.34 1017.71 1017.90 1018.04 1018.01 1017.86 1017.72 1017.60 1018.37 1018.45 1018.64 1018.88 1019.04 1019.21 1019.36 1019.32 1019.11 1019.51 1019.55
1003.14 1003.87 1004.04 1002.92 1006.03 1007.11 1006.06 1005.13 1002.84 1003.15 1003.52 1004.00 1005.78 1006.60 1006.43 1006.25 1006.85 1006.55 1006.92 1007.62 1008.98 1009.89 1010.72 1011.86 1012.87 1013.84 1014.52 1015.09 1015.61 1016.17 1016.64 1017.03 1017.61 1017.63 1017.91 1018.08 1018.00 1018.15 1018.33 1018.58 1018.63 1018.82 1019.00 1019.15 1019.54 1019.61 1019.39 1019.33 1019.29
1004.68 1006.02 1004.21 1003.48 1005.98 1006.47 1007.30 1007.82 1004.95 1004.37 1004.36 1004.54 1006.13 1007.18 1006.93 1006.76 1006.52 1006.53 1006.99 1007.28 1008.30 1009.52 1010.09 1011.29 1012.23 1013.09 1013.80 1014.30 1015.04 1015.68 1016.19 1016.54 1016.79 1017.18 1017.32 1017.65 1017.84 1017.88 1018.30 1018.67 1018.77 1018.87 1018.86 1018.92 1019.11 1019.36 1019.07 1018.99 1019.11
Thickness
5796 5803 5813 5802 5777 5780 5785 5793 5809 5796 5795 5808 5809 5803 5786 5782 5768 5741 5782 5779 5771 5761 5748 5742 5736 5736 5735 5733 5735 5736 5738 5740 5742 5744 5745 5746 5748 5749 5748 5748 5749 5748 5748 5747 5747 5747 5745 5746 5746
5806 5809 5801 5788 5772 5780 5776 5804 5792 5802 5806 5808 5803 5803 5786 5768 5785 5779 5773 5778 5772 5766 5758 5746 5738 5736 5735 5736 5736 5736 5738 5739 5741 5742 5744 5746 5746 5748 5746 5748 5747 5747 5746 5746 5744 5743 5743 5742 5740
5807 5798 5783 5772 5789 5756 5782 5803 5803 5804 5811 5803 5791 5797 5787 5770 5783 5782 5782 5780 5773 5768 5756 5742 5738 5736 5736 5737 5736 5737 5737 5738 5739 5741 5743 5746 5745 5744 5744 5745 5746 5746 5745 5746 5746 5744 5744 5742 5742
5801 5788 5778 5751 5754 5800 5803 5806 5807 5803 5802 5805 5795 5771 5786 5791 5783 5782 5785 5780 5775 5767 5755 5742 5739 5737 5736 5735 5736 5735 5737 5738 5740 5741 5741 5743 5742 5743 5744 5743 5743 5743 5743 5746 5745 5744 5743 5743 5744
5811 5793 5753 5760 5781 5797 5811 5814 5810 5794 5797 5797 5792 5768 5768 5784 5788 5786 5784 5780 5765 5769 5756 5747 5741 5740 5738 5736 5736 5736 5738 5739 5740 5739 5740 5741 5741 5742 5743 5743 5741 5743 5743 5745 5742 5745 5745 5745 5745
5776 5798 5764 5749 5768 5788 5803 5813 5804 5794 5798 5792 5782 5774 5768 5784 5782 5784 5787 5778 5771 5769 5761 5751 5744 5742 5741 5739 5739 5739 5739 5740 5740 5739 5739 5739 5739 5741 5742 5740 5743 5743 5741 5740 5743 5745 5746 5744 5746
5784 5781 5756 5758 5763 5773 5789 5811 5799 5792 5796 5785 5793 5766 5771 5777 5783 5787 5787 5784 5775 5766 5763 5758 5751 5745 5742 5740 5741 5740 5739 5739 5739 5740 5740 5739 5739 5741 5742 5742 5744 5744 5743 5744 5746 5747 5747 5747 5749
5804 5802 5778 5760 5761 5759 5791 5800 5803 5799 5786 5809 5800 5765 5763 5779 5784 5787 5785 5780 5777 5767 5759 5759 5756 5752 5748 5744 5740 5740 5739 5738 5739 5740 5742 5743 5743 5743 5744 5745 5745 5746 5746 5748 5749 5749 5749 5751 5751
5810 5765 5763 5750 5754 5767 5790 5789 5798 5803 5790 5797 5798 5788 5788 5786 5786 5781 5777 5773 5772 5771 5770 5761 5755 5754 5752 5745 5741 5740 5739 5739 5741 5743 5744 5746 5750 5748 5746 5745 5745 5747 5750 5749 5750 5752 5754 5756 5757
5801 5772 5768 5784 5761 5773 5781 5788 5789 5788 5784 5785 5789 5795 5788 5784 5782 5775 5773 5766 5767 5766 5772 5772 5766 5761 5760 5754 5747 5748 5746 5748 5747 5749 5750 5751 5749 5750 5749 5748 5749 5752 5752 5753 5757 5760 5760 5762 5768
5807 5781 5792 5783 5764 5769 5776 5787 5798 5791 5779 5789 5783 5779 5778 5780 5779 5775 5774 5771 5765 5766 5771 5772 5764 5757 5759 5752 5752 5757 5753 5750 5747 5749 5753 5753 5755 5756 5758 5759 5759 5764 5760 5762 5765 5767 5769 5777 5780
5790 5801 5800 5782 5770 5763 5767 5787 5785 5796 5788 5801 5796 5786 5780 5778 5778 5778 5775 5772 5765 5762 5766 5767 5760 5753 5756 5750 5756 5761 5758 5758 5758 5751 5755 5759 5759 5763 5765 5773 5779 5777 5775 5773 5774 5775 5776 5778 5781
5800 5796 5795 5790 5779 5774 5769 5768 5781 5782 5793 5803 5796 5786 5781 5783 5781 5783 5781 5777 5766 5761 5762 5762 5758 5750 5754 5758 5762 5761 5760 5765 5761 5760 5762 5759 5764 5763 5769 5775 5781 5786 5783 5779 5776 5775 5779 5781 5782
5807 5802 5792 5787 5776 5762 5757 5754 5770 5782 5795 5790 5786 5784 5786 5785 5781 5780 5777 5772 5766 5766 5762 5762 5759 5753 5756 5758 5758 5760 5764 5763 5763 5761 5756 5761 5765 5764 5782 5773 5787 5786 5785 5783 5779 5780 5783 5783 5783
5805 5791 5793 5772 5767 5752 5751 5734 5747 5772 5788 5781 5782 5784 5783 5783 5783 5780 5779 5772 5770 5768 5765 5761 5761 5759 5756 5755 5756 5762 5763 5761 5761 5758 5754 5755 5761 5768 5772 5757 5788 5781 5776 5775 5776 5781 5784 5788 5788
5799 5800 5769 5766 5758 5748 5745 5717 5741 5753 5779 5776 5776 5777 5777 5778 5778 5780 5780 5777 5774 5774 5766 5765 5769 5763 5758 5756 5759 5762 5764 5762 5760 5761 5759 5756 5756 5764 5776 5782 5779 5780 5783 5783 5783 5788 5791 5792 5792
5803 5772 5749 5755 5761 5739 5726 5718 5733 5755 5770 5770 5775 5778 5777 5777 5777 5780 5781 5780 5775 5775 5768 5766 5768 5764 5758 5757 5760 5760 5762 5762 5761 5762 5763 5758 5758 5763 5773 5775 5780 5783 5788 5786 5786 5789 5791 5789 5793
5736 5791 5776 5753 5744 5735 5725 5718 5725 5735 5750 5752 5774 5780 5779 5776 5775 5783 5782 5780 5778 5774 5770 5768 5768 5763 5759 5757 5756 5760 5760 5763 5762 5761 5763 5758 5760 5762 5772 5783 5785 5786 5799 5790 5789 5787 5791 5794 5797
5768 5761 5740 5756 5759 5748 5737 5727 5721 5725 5736 5748 5753 5763 5779 5782 5784 5789 5787 5782 5779 5771 5767 5765 5765 5762 5761 5761 5760 5761 5761 5764 5764 5762 5760 5758 5761 5763 5772 5789 5771 5782 5803 5793 5783 5784 5785 5793 5796
5796 5777 5760 5767 5766 5766 5743 5732 5724 5725 5729 5739 5757 5754 5770 5783 5782 5785 5783 5785 5780 5770 5768 5764 5761 5761 5762 5766 5766 5767 5764 5766 5766 5766 5761 5763 5762 5764 5770 5784 5780 5766 5800 5788 5784 5786 5791 5794 5796
5789 5788 5763 5757 5768 5779 5762 5736 5726 5724 5729 5739 5752 5760 5755 5767 5768 5783 5786 5786 5781 5774 5768 5768 5765 5761 5762 5768 5766 5766 5763 5767 5767 5766 5765 5764 5764 5766 5769 5777 5787 5782 5811 5799 5788 5788 5789 5791 5793
5782 5797 5782 5771 5772 5719 5775 5748 5740 5739 5728 5729 5744 5746 5761 5774 5783 5792 5789 5787 5780 5776 5776 5774 5770 5764 5762 5766 5765 5764 5763 5765 5771 5772 5772 5767 5765 5768 5769 5771 5777 5795 5777 5800 5791 5790 5789 5792 5793
5777 5784 5775 5776 5772 5771 5768 5771 5750 5753 5725 5731 5747 5753 5770 5782 5790 5795 5798 5794 5794 5783 5777 5780 5773 5768 5767 5766 5765 5768 5767 5772 5775 5774 5770 5769 5766 5767 5770 5770 5773 5778 5784 5787 5785 5785 5786 5793 5793
5786 5773 5774 5775 5774 5757 5782 5772 5745 5746 5757 5747 5752 5762 5775 5776 5798 5803 5801 5803 5797 5794 5783 5784 5776 5768 5770 5767 5767 5770 5771 5768 5776 5774 5771 5772 5773 5770 5771 5772 5772 5774 5778 5779 5781 5781 5784 5784 5787
5773 5771 5754 5750 5761 5764 5776 5776 5760 5785 5790 5776 5767 5770 5781 5792 5797 5791 5803 5799 5799 5793 5787 5783 5778 5770 5770 5770 5768 5770 5770 5774 5776 5775 5776 5780 5781 5782 5776 5774 5773 5775 5774 5776 5776 5778 5781 5782 5783
5766 5782 5766 5699 5742 5726 5775 5769 5755 5798 5809 5798 5783 5777 5785 5796 5805 5800 5807 5798 5803 5796 5793 5789 5781 5774 5770 5771 5770 5771 5772 5775 5778 5775 5781 5783 5785 5786 5782 5777 5776 5775 5776 5775 5775 5777 5779 5784 5782
5772 5761 5803 5769 5772 5745 5761 5780 5800 5800 5796 5779 5778 5789 5789 5793 5804 5804 5813 5797 5805 5799 5794 5789 5783 5778 5776 5775 5771 5771 5771 5773 5780 5781 5779 5782 5786 5786 5784 5780 5778 5777 5776 5776 5776 5777 5780 5780 5781
5772 5763 5762 5783 5727 5722 5736 5773 5747 5782 5780 5785 5788 5788 5796 5795 5795 5809 5813 5811 5805 5800 5797 5792 5788 5780 5779 5779 5777 5775 5774 5774 5775 5776 5777 5780 5782 5784 5780 5780 5779 5778 5777 5776 5776 5778 5782 5779 5780
5766 5759 5764 5784 5733 5693 5708 5723 5791 5785 5791 5789 5778 5774 5785 5795 5794 5806 5809 5811 5803 5800 5797 5792 5789 5784 5781 5781 5781 5779 5778 5778 5776 5777 5777 5777 5779 5778 5777 5777 5778 5778 5777 5776 5774 5775 5778 5778 5780
5745 5723 5763 5770 5732 5740 5690 5695 5776 5780 5783 5788 5772 5768 5782 5785 5798 5802 5805 5809 5805 5798 5798 5793 5790 5787 5786 5786 5783 5780 5780 5780 5779 5778 5780 5780 5778 5777 5775 5774 5774 5775 5777 5778 5776 5775 5779 5779 5777